User: anonymous   Login
Location: Cussy
(47.0410°N, 4.6412°E)
Time: 22:09:09
(UTC+00:00)
Language:

Cosmos 1603 - Orbit

View from above orbital plane
View from above orbital plane
View from above satellite
View from above satellite

Ground track
Ground track

The orbit data is extracted from the following two-line orbital elements,

1 15333U 84106A   21058.52061804 -.00000212  00000-0 -85997-4 0  9995
2 15333  71.0275 142.5708 0021887 305.5087  54.3993 14.14115072879058
Epoch (UTC): 27 February 2021 12:29:41
Eccentricity: 0.0021887
inclination: 71.0275°
perigee height: 829 km
apogee height: 861 km
right ascension of ascending node: 142.5708°
argument of perigee: 305.5087°
revolutions per day: 14.14115072
mean anomaly at epoch: 54.3993°
orbit number at epoch: 87905

The dashed part of the orbit path shows where the satellite is in the earth's shadow,  

DLR